EW6013 Weather Reports


Display with metric or nautical units.
time (UTC)temp
F
wind
direction
speed
MPH
gust
MPH
rain 1hr
in
rain 24hr
in
rain mn
in
humidity
%
barometer
mb
20260905034535 62 0.0 0.0 0.00 0.00 0.00 31 1006.8
20260905034015 62 0.0 0.0 0.00 0.00 0.00 31 1006.8
20260905033515 62 0.0 0.0 0.00 0.00 0.00 32 1006.8
20260905033015 62 0.0 0.0 0.00 0.00 0.00 32 1006.8
20260905032515 63 0.0 0.0 0.00 0.00 0.00 31 1006.9
20260905032016 63 0.0 0.0 0.00 0.00 0.00 32 1006.9
20260905031515 63 0.0 0.0 0.00 0.00 0.00 32 1006.8
20260905031016 63 0.0 0.0 0.00 0.00 0.00 32 1006.8
20260905030515 63 0.0 0.0 0.00 0.00 0.00 33 1006.8
20260905030016 63 0.0 0.0 0.00 0.00 0.00 33 1006.9
20260905025515 63 0.0 0.0 0.00 0.00 0.00 33 1007.0
20260905025015 63 0.0 0.0 0.00 0.00 0.00 34 1007.0
20260905024515 63 0.0 0.0 0.00 0.00 0.00 36 1006.9
20260905024015 63 0.0 0.0 0.00 0.00 0.00 37 1006.9
20260905023535 63 0.0 0.0 0.00 0.00 0.00 37 1006.9
20260905023035 63 0.0 0.0 0.00 0.00 0.00 39 1007.0
20260905022515 63 0.0 0.0 0.00 0.00 0.00 42 1007.0
20260905022015 63 0.0 0.0 0.00 0.00 0.00 45 1007.0
20260905021515 64 0.0 0.0 0.00 0.00 0.00 46 1007.0
20260905021015 64 0.0 0.0 0.00 0.00 0.00 47 1007.0
20260905020535 64 0.0 0.0 0.00 0.00 0.00 48 1007.1
20260905020015 64 0.0 0.0 0.00 0.00 0.00 50 1007.1
20260905015515 64 0.0 0.0 0.00 0.00 0.00 54 1007.2
20260905015055 64 0.0 0.0 0.00 0.00 0.00 56 1007.2
20260905014515 65 0.0 0.0 0.00 0.00 0.00 56 1007.2
20260905014015 65 0.0 0.0 0.00 0.00 0.00 56 1007.2
20260905013515 65 0.0 0.0 0.00 0.00 0.00 55 1007.3
20260905013015 65 0.0 0.0 0.00 0.00 0.00 58 1007.3
20260905012535 65 0.0 0.0 0.00 0.00 0.00 60 1007.3
20260905012035 65 0.0 0.0 0.00 0.00 0.00 60 1007.2
20260905011515 66 0.0 0.0 0.00 0.00 0.00 62 1007.2
20260905011015 66 0.0 0.0 0.00 0.00 0.00 61 1007.2
20260905010515 66 0.0 0.0 0.00 0.00 0.00 62 1007.2
20260905010035 66 0.0 0.0 0.00 0.00 0.00 63 1007.1
20260905005515 66 0.0 0.0 0.00 0.00 0.00 62 1007.1
20260905005015 67 0.0 0.0 0.00 0.00 0.00 61 1007.1
20260905004515 67 0.0 0.0 0.00 0.00 0.00 65 1006.9
20260905004015 67 0.0 0.0 0.00 0.00 0.00 64 1007.0
20260905003535 67 0.0 0.0 0.00 0.00 0.00 65 1007.0
20260905003015 67 0.0 0.0 0.00 0.00 0.00 66 1007.0
20260905002515 68 0.0 0.0 0.00 0.00 0.00 67 1007.0
20260905002015 68 0.0 0.0 0.00 0.00 0.00 67 1007.0
20260905001515 68 0.0 0.0 0.00 0.00 0.00 70 1007.0
20260905001035 68 0.0 0.0 0.00 0.00 0.00 72 1006.9
20260905000555 69 0.0 0.0 0.00 0.00 0.00 72 1006.9
20260905000035 69 0.0 0.0 0.00 0.00 0.00 73 1006.9
20260904235515 69 0.0 0.0 0.00 0.00 0.00 73 1006.9
20260904235015 69 0.0 0.0 0.00 0.00 0.00 73 1006.8
20260904234515 69 0.0 0.0 0.00 0.00 0.00 73 1006.7
20260904234015 70 0.0 0.0 0.00 0.00 0.00 73 1006.6
20260904233615 70 0.0 0.0 0.00 0.00 0.00 74 1006.6
20260904233015 70 0.0 0.0 0.00 0.00 0.00 74 1006.6
20260904232515 70 0.0 0.0 0.00 0.00 0.00 74 1006.5
20260904232015 71 0.0 0.0 0.00 0.00 0.00 74 1006.4
20260904231515 71 0.0 0.0 0.00 0.00 0.00 74 1006.3
20260904231015 71 0.0 0.0 0.00 0.00 0.00 74 1006.3
20260904230515 72 0.0 0.0 0.00 0.00 0.00 74 1006.2
20260904230015 72 0.0 0.0 0.00 0.00 0.00 73 1006.2
20260904225515 72 0.0 0.0 0.00 0.00 0.00 73 1006.3
20260904225015 72 0.0 0.0 0.00 0.00 0.00 73 1006.3
20260904224515 73 0.0 0.0 0.00 0.00 0.00 73 1006.3
20260904224015 73 0.0 0.0 0.00 0.00 0.00 73 1006.2
20260904223515 73 0.0 0.0 0.00 0.00 0.00 73 1006.2
20260904223015 74 0.0 0.0 0.00 0.00 0.00 73 1006.2
20260904222515 74 0.0 0.0 0.00 0.00 0.00 73 1006.2
20260904222015 74 0.0 0.0 0.00 0.00 0.00 72 1006.1
20260904221517 74 0.0 0.0 0.00 0.00 0.00 72 1006.1
20260904221017 75 0.0 0.0 0.00 0.00 0.00 72 1006.1
20260904220516 75 0.0 0.0 0.00 0.00 0.00 72 1006.1
20260904220057 75 0.0 0.0 0.00 0.00 0.00 71 1006.1
20260904215537 76 0.0 0.0 0.00 0.00 0.00 70 1006.1
20260904215016 76 0.0 0.0 0.00 0.00 0.00 71 1006.1
20260904214517 76 0.0 0.0 0.00 0.00 0.00 70 1006.0
20260904214017 76 0.0 0.0 0.00 0.00 0.00 69 1006.1
20260904213517 76 0.0 0.0 0.00 0.00 0.00 69 1006.1
20260904213017 77 0.0 0.0 0.00 0.00 0.00 69 1006.1
20260904212516 77 0.0 0.0 0.00 0.00 0.00 69 1006.1
20260904212016 77 0.0 2.0 0.00 0.00 0.00 68 1006.1
20260904211516 77 111 0.0 2.0 0.00 0.00 0.00 68 1006.1
20260904211017 77 0.0 0.0 0.00 0.00 0.00 69 1006.1
20260904210517 77 0.0 0.0 0.00 0.00 0.00 70 1006.1
20260904210016 77 0.0 0.0 0.00 0.00 0.00 69 1006.1
20260904205536 77 0.0 4.0 0.00 0.00 0.00 70 1006.0
20260904205016 77 253 0.0 4.0 0.00 0.00 0.00 68 1006.0
20260904204516 78 144 0.0 3.0 0.00 0.00 0.00 68 1006.0
20260904204015 78 0.0 1.0 0.00 0.00 0.00 68 1006.1
20260904203516 78 228 0.0 1.0 0.00 0.00 0.00 68 1006.1
20260904203016 78 0.0 0.0 0.00 0.00 0.00 66 1006.1
20260904202516 79 0.0 1.0 0.00 0.00 0.00 64 1006.1
20260904202017 79 101 0.0 4.0 0.00 0.00 0.00 63 1006.1
20260904201516 79 90 0.0 7.0 0.00 0.00 0.00 62 1006.1
20260904201016 79 327 1.0 7.0 0.00 0.00 0.00 63 1006.1
20260904200516 79 248 0.0 4.0 0.00 0.00 0.00 64 1006.0
20260904200037 79 268 1.0 4.0 0.00 0.00 0.00 63 1006.0
20260904195516 79 306 0.0 4.0 0.00 0.00 0.00 62 1006.1
20260904195016 79 15 0.0 3.0 0.00 0.00 0.00 63 1006.2
20260904194516 79 278 1.0 7.0 0.00 0.00 0.00 62 1006.1
20260904194016 79 261 1.0 7.0 0.00 0.00 0.00 60 1006.0
20260904193516 79 248 1.0 11.0 0.00 0.00 0.00 59 1006.0
20260904193016 80 259 2.0 11.0 0.00 0.00 0.00 60 1006.0
20260904192516 80 263 2.0 8.0 0.00 0.00 0.00 59 1005.9
20260904192036 80 300 1.0 8.0 0.00 0.00 0.00 58 1005.9
20260904191516 80 302 2.0 8.0 0.00 0.00 0.00 58 1005.9
20260904191036 80 248 0.0 4.0 0.00 0.00 0.00 59 1005.9
20260904190516 81 257 2.0 8.0 0.00 0.00 0.00 59 1006.0
20260904190016 81 338 1.0 8.0 0.00 0.00 0.00 56 1006.0
20260904185516 80 336 1.0 7.0 0.00 0.00 0.00 58 1006.1
20260904185016 80 300 2.0 8.0 0.00 0.00 0.00 56 1006.1
20260904184516 80 268 2.0 8.0 0.00 0.00 0.00 58 1006.1
20260904184037 80 282 2.0 8.0 0.00 0.00 0.00 59 1006.2
20260904183536 80 15 1.0 4.0 0.00 0.00 0.00 57 1006.2
20260904183016 80 286 1.0 7.0 0.00 0.00 0.00 57 1006.3
20260904182536 81 29 2.0 7.0 0.00 0.00 0.00 55 1006.3
20260904182016 81 61 1.0 7.0 0.00 0.00 0.00 57 1006.3
20260904181516 81 32 2.0 7.0 0.00 0.00 0.00 58 1006.2
20260904181056 81 8 1.0 8.0 0.00 0.00 0.00 57 1006.2
20260904180536 81 26 2.0 8.0 0.00 0.00 0.00 58 1006.3
20260904180016 81 5 1.0 8.0 0.00 0.00 0.00 58 1006.3
20260904175516 81 353 0.0 6.0 0.00 0.00 0.00 58 1006.2
20260904175016 81 275 0.0 2.0 0.00 0.00 0.00 61 1006.3
20260904174536 80 224 0.0 5.0 0.00 0.00 0.00 61 1006.2
20260904174016 80 209 2.0 7.0 0.00 0.00 0.00 59 1006.3
20260904173516 80 268 1.0 7.0 0.00 0.00 0.00 59 1006.3
20260904173016 80 239 1.0 7.0 0.00 0.00 0.00 60 1006.4
20260904172536 80 270 2.0 7.0 0.00 0.00 0.00 60 1006.4
20260904172016 81 324 1.0 4.0 0.00 0.00 0.00 60 1006.4
20260904171516 81 288 1.0 4.0 0.00 0.00 0.00 59 1006.4
20260904171016 81 252 0.0 4.0 0.00 0.00 0.00 60 1006.5
20260904170516 81 299 1.0 4.0 0.00 0.00 0.00 63 1006.5
20260904170016 80 254 0.0 6.0 0.00 0.00 0.00 63 1006.6
20260904165536 80 249 1.0 6.0 0.00 0.00 0.00 64 1006.7
20260904165016 80 247 0.0 4.0 0.00 0.00 0.00 64 1006.7
20260904164516 80 267 0.0 4.0 0.00 0.00 0.00 64 1006.6
20260904164036 80 272 1.0 4.0 0.00 0.00 0.00 65 1006.6
20260904163516 80 29 1.0 5.0 0.00 0.00 0.00 64 1006.6
20260904163016 80 328 2.0 5.0 0.00 0.00 0.00 64 1006.6
20260904162516 80 91 1.0 4.0 0.00 0.00 0.00 66 1006.6
20260904162016 79 251 1.0 8.0 0.00 0.00 0.00 68 1006.7
20260904161516 79 249 1.0 8.0 0.00 0.00 0.00 68 1006.7
20260904161056 79 272 0.0 4.0 0.00 0.00 0.00 69 1006.8
20260904160536 79 323 0.0 7.0 0.00 0.00 0.00 69 1006.8
20260904160016 78 309 2.0 7.0 0.00 0.00 0.00 70 1006.8
20260904155536 78 270 0.0 4.0 0.00 0.00 0.00 72 1006.9
20260904155016 78 186 0.0 3.0 0.00 0.00 0.00 72 1007.0
20260904154536 77 122 1.0 6.0 0.00 0.00 0.00 72 1007.1
20260904154016 77 271 1.0 6.0 0.00 0.00 0.00 72 1007.2
20260904153536 77 224 1.0 9.0 0.00 0.00 0.00 73 1007.2
20260904153016 76 270 2.0 9.0 0.00 0.00 0.00 72 1007.2
20260904152516 75 23 1.0 5.0 0.00 0.00 0.00 73 1007.2
20260904152016 75 77 1.0 4.0 0.00 0.00 0.00 71 1007.2
20260904151516 75 169 0.0 8.0 0.00 0.00 0.00 71 1007.2
20260904151016 74 241 1.0 8.0 0.00 0.00 0.00 70 1007.3
20260904150536 74 268 1.0 8.0 0.00 0.00 0.00 66 1007.3
20260904150015 73 321 1.0 8.0 0.00 0.00 0.00 64 1007.3
20260904145516 72 271 0.0 6.0 0.00 0.00 0.00 59 1007.3
20260904145016 71 243 1.0 4.0 0.00 0.00 0.00 50 1007.4
20260904144515 71 85 0.0 3.0 0.00 0.00 0.00 37 1007.4
20260904144015 71 85 0.0 6.0 0.00 0.00 0.00 34 1007.4
20260904143516 71 232 0.0 6.0 0.00 0.00 0.00 16 1007.5
20260904143016 71 0.0 0.0 0.00 0.00 0.00 7 1007.5
20260904142515 70 0.0 0.0 0.00 0.00 0.00 3 1007.5
20260904142016 70 0.0 0.0 0.00 0.00 0.00 3 1007.6
20260904141516 70 0.0 0.0 0.00 0.00 0.00 4 1007.7
20260904141035 69 0.0 0.0 0.00 0.00 0.00 4 1007.7
20260904140516 69 0.0 0.0 0.00 0.00 0.00 5 1007.6
20260904140015 68 0.0 0.0 0.00 0.00 0.00 5 1007.7
20260904135516 68 0.0 0.0 0.00 0.00 0.00 5 1007.7
20260904135056 68 0.0 0.0 0.00 0.00 0.00 6 1007.7
20260904134516 67 0.0 0.0 0.00 0.00 0.00 6 1007.7
20260904134016 67 0.0 0.0 0.00 0.00 0.00 6 1007.7
20260904133516 66 0.0 0.0 0.00 0.00 0.00 6 1007.7
20260904133015 66 0.0 0.0 0.00 0.00 0.00 6 1007.7
20260904132515 66 0.0 0.0 0.00 0.00 0.00 6 1007.8
20260904132015 66 0.0 0.0 0.00 0.00 0.00 6 1007.9
20260904131515 66 0.0 0.0 0.00 0.00 0.00 6 1008.0
20260904131015 66 0.0 0.0 0.00 0.00 0.00 6 1007.9
20260904130515 66 0.0 0.0 0.00 0.00 0.00 6 1007.9
20260904130015 65 0.0 0.0 0.00 0.00 0.00 6 1007.9
20260904125515 65 0.0 0.0 0.00 0.00 0.00 6 1007.9
20260904125016 65 0.0 0.0 0.00 0.00 0.00 6 1007.9
20260904124515 65 0.0 0.0 0.00 0.00 0.00 6 1007.9
20260904124016 65 0.0 0.0 0.00 0.00 0.00 7 1007.8
20260904123515 65 0.0 0.0 0.00 0.00 0.00 7 1007.8
20260904123015 65 0.0 0.0 0.00 0.00 0.00 7 1007.8
20260904122515 65 0.0 0.0 0.00 0.00 0.00 7 1007.8
20260904122015 65 0.0 0.0 0.00 0.00 0.00 7 1007.8
20260904121515 64 0.0 0.0 0.00 0.00 0.00 7 1007.9
20260904121035 64 0.0 0.0 0.00 0.00 0.00 7 1007.9
20260904120535 64 0.0 0.0 0.00 0.00 0.00 7 1007.8
20260904120035 64 0.0 0.0 0.00 0.00 0.00 7 1007.7
20260904115515 64 0.0 0.0 0.00 0.00 0.00 7 1007.7
20260904115015 64 0.0 0.0 0.00 0.00 0.00 7 1007.7
20260904114515 64 0.0 0.0 0.00 0.00 0.00 7 1007.7
20260904114015 64 0.0 0.0 0.00 0.00 0.00 7 1007.7
20260904113515 64 0.0 0.0 0.00 0.00 0.00 7 1007.7
20260904113015 64 0.0 0.0 0.00 0.00 0.00 7 1007.7
20260904112515 64 0.0 0.0 0.00 0.00 0.00 7 1007.7
20260904112035 63 0.0 0.0 0.00 0.00 0.00 7 1007.7
20260904111515 63 0.0 0.0 0.00 0.00 0.00 7 1007.7
20260904111015 63 0.0 0.0 0.00 0.00 0.00 8 1007.7
20260904110515 63 0.0 0.0 0.00 0.00 0.00 8 1007.7
20260904110035 63 0.0 0.0 0.00 0.00 0.00 8 1007.7
20260904105515 63 0.0 0.0 0.00 0.00 0.00 8 1007.6
20260904105015 63 0.0 0.0 0.00 0.00 0.00 8 1007.6
20260904104515 63 0.0 0.0 0.00 0.00 0.00 8 1007.6
20260904104015 63 0.0 0.0 0.00 0.00 0.00 8 1007.5
20260904103515 64 0.0 0.0 0.00 0.00 0.00 8 1007.4
20260904103155 64 0.0 0.0 0.00 0.00 0.00 8 1007.4
20260904102515 64 0.0 0.0 0.00 0.00 0.00 8 1007.4
20260904102015 64 0.0 0.0 0.00 0.00 0.00 8 1007.4
20260904101515 64 0.0 0.0 0.00 0.00 0.00 7 1007.4
20260904101015 64 0.0 0.0 0.00 0.00 0.00 7 1007.3
20260904100515 64 0.0 0.0 0.00 0.00 0.00 7 1007.1
20260904100015 64 0.0 0.0 0.00 0.00 0.00 7 1007.1
20260904095515 64 0.0 0.0 0.00 0.00 0.00 7 1007.1
20260904095015 65 0.0 0.0 0.00 0.00 0.00 7 1007.2
20260904094515 65 0.0 0.0 0.00 0.00 0.00 7 1007.2
20260904094015 65 0.0 0.0 0.00 0.01 0.00 7 1007.2
20260904093515 65 0.0 0.0 0.00 0.02 0.00 7 1007.2
20260904093015 65 0.0 0.0 0.00 0.02 0.00 7 1007.2
20260904092515 65 0.0 0.0 0.00 0.02 0.00 7 1007.2
20260904092015 65 0.0 0.0 0.00 0.02 0.00 7 1007.3
20260904091515 65 0.0 0.0 0.00 0.03 0.00 7 1007.3
20260904091015 65 0.0 0.0 0.00 0.03 0.00 7 1007.3
20260904090515 65 0.0 0.0 0.00 0.05 0.00 6 1007.3
20260904090035 65 0.0 0.0 0.00 0.06 0.00 6 1007.3
20260904085515 65 0.0 0.0 0.00 0.06 0.00 6 1007.2
20260904085015 65 0.0 0.0 0.00 0.07 0.00 6 1007.2
20260904084535 66 0.0 0.0 0.00 0.07 0.00 7 1007.2
20260904084015 66 0.0 0.0 0.00 0.07 0.00 6 1007.2
20260904083514 66 0.0 0.0 0.00 0.07 0.00 6 1007.2
20260904083015 66 0.0 0.0 0.00 0.07 0.00 6 1007.2
20260904082515 66 0.0 0.0 0.00 0.07 0.00 6 1007.3
20260904082015 66 0.0 0.0 0.00 0.07 0.00 6 1007.3
20260904081515 66 0.0 0.0 0.00 0.07 0.00 6 1007.3
20260904081055 66 0.0 0.0 0.00 0.07 0.00 6 1007.5
20260904080515 66 0.0 0.0 0.00 0.07 0.00 6 1007.6
20260904080035 66 0.0 0.0 0.00 0.07 0.00 6 1007.6
20260904075517 66 0.0 0.0 0.00 0.07 0.00 6 1007.6
20260904075017 66 0.0 0.0 0.00 0.07 0.00 6 1007.6
20260904074517 66 0.0 0.0 0.00 0.09 0.00 6 1007.6
20260904074017 66 0.0 0.0 0.00 0.10 0.00 6 1007.6
20260904073517 66 0.0 0.0 0.00 0.10 0.00 6 1007.6
20260904073037 66 0.0 0.0 0.00 0.10 0.00 6 1007.5
20260904072516 66 0.0 0.0 0.00 0.10 0.00 6 1007.5
20260904072016 66 0.0 0.0 0.00 0.10 0.00 6 1007.5
20260904071517 66 0.0 0.0 0.00 0.10 0.00 6 1007.5
20260904071017 66 0.0 0.0 0.00 0.10 0.00 6 1007.5
20260904070517 66 0.0 0.0 0.00 0.10 0.00 6 1007.5
20260904070016 66 0.0 0.0 0.00 0.10 0.00 6 1007.6
20260904065516 66 0.0 0.0 0.00 0.10 0.00 6 1007.6
20260904065016 66 0.0 0.0 0.00 0.10 0.00 6 1007.6
20260904064537 66 0.0 0.0 0.00 0.10 0.00 6 1007.6
20260904064016 66 0.0 0.0 0.00 0.10 0.00 6 1007.7
20260904063516 66 0.0 0.0 0.00 0.10 0.00 6 1007.8
20260904063016 66 0.0 0.0 0.00 0.10 0.00 6 1007.8
20260904062517 66 0.0 0.0 0.00 0.10 0.00 6 1007.8
20260904062016 66 0.0 0.0 0.00 0.10 0.00 6 1007.9
20260904061516 66 0.0 0.0 0.00 0.10 0.00 6 1007.9
20260904061016 66 0.0 0.0 0.00 0.10 0.00 6 1007.9
20260904060517 66 0.0 0.0 0.00 0.10 0.00 6 1008.0
20260904060016 66 0.0 0.0 0.00 0.10 0.00 6 1008.1
20260904055516 66 0.0 0.0 0.00 0.10 0.00 6 1008.2
20260904055016 66 0.0 0.0 0.00 0.10 0.00 6 1008.4
20260904054516 66 0.0 0.0 0.00 0.10 0.00 7 1008.4
20260904054036 66 0.0 0.0 0.00 0.10 0.00 7 1008.5
20260904053516 66 0.0 0.0 0.00 0.10 0.00 7 1008.6
20260904053016 66 0.0 0.0 0.00 0.10 0.00 7 1008.6
20260904052516 66 0.0 0.0 0.00 0.10 0.00 7 1008.6
20260904052016 66 0.0 0.0 0.00 0.10 0.00 7 1008.6
20260904051516 66 0.0 0.0 0.00 0.10 0.00 7 1008.7
20260904051016 66 0.0 0.0 0.00 0.10 0.00 7 1008.7
20260904050517 66 0.0 0.0 0.00 0.10 0.00 7 1008.7
20260904050016 66 0.0 0.0 0.00 0.10 0.00 7 1008.6
20260904045516 66 0.0 0.0 0.00 0.10 0.00 7 1008.5
20260904045016 66 0.0 0.0 0.00 0.10 0.00 7 1008.6
20260904044556 66 0.0 0.0 0.00 0.10 0.00 7 1008.6
20260904044016 66 0.0 0.0 0.00 0.10 0.00 7 1008.7
20260904043516 66 0.0 0.0 0.00 0.10 0.00 7 1008.8
20260904043037 66 0.0 0.0 0.00 0.10 0.00 7 1008.7
20260904042516 66 0.0 0.0 0.00 0.10 0.00 8 1008.8
20260904042016 66 0.0 0.0 0.00 0.10 0.00 8 1008.8
20260904041516 66 0.0 0.0 0.00 0.10 0.00 8 1008.8
20260904041016 65 0.0 0.0 0.00 0.10 0.00 8 1008.9
20260904040516 65 0.0 0.0 0.00 0.10 0.00 9 1008.8
20260904040016 65 0.0 0.0 0.00 0.10 0.10 9 1008.9
20260904035516 65 0.0 0.0 0.00 0.10 0.10 9 1009.0
20260904035016 65 0.0 0.0 0.00 0.10 0.10 10 1008.9